Year,Month,Day,Hour,Minute,Value (Times are PST for temperature in C)
2015,07,06,00,00,17.40
2015,07,06,00,01,17.40
2015,07,06,00,02,17.40
2015,07,06,00,03,17.40
2015,07,06,00,04,17.30
2015,07,06,00,05,17.30
2015,07,06,00,06,17.30
2015,07,06,00,07,17.30
2015,07,06,00,08,17.30
2015,07,06,00,09,17.30
2015,07,06,00,10,17.30
2015,07,06,00,11,17.30
2015,07,06,00,12,17.30
2015,07,06,00,13,17.30
2015,07,06,00,14,17.30
2015,07,06,00,15,17.30
2015,07,06,00,16,17.30
2015,07,06,00,17,17.30
2015,07,06,00,18,17.30
2015,07,06,00,19,17.30
2015,07,06,00,20,17.30
2015,07,06,00,21,17.30
2015,07,06,00,22,17.20
2015,07,06,00,23,17.20
2015,07,06,00,24,17.20
2015,07,06,00,25,17.20
2015,07,06,00,26,17.20
2015,07,06,00,27,17.20
2015,07,06,00,28,17.20
2015,07,06,00,29,17.20
2015,07,06,00,30,17.20
2015,07,06,00,31,17.10
2015,07,06,00,32,17.10
2015,07,06,00,33,17.10
2015,07,06,00,34,17.10
2015,07,06,00,35,17.10
2015,07,06,00,36,17.10
2015,07,06,00,37,17.00
2015,07,06,00,38,17.00
2015,07,06,00,39,17.00
2015,07,06,00,40,16.90
2015,07,06,00,41,16.90
2015,07,06,00,42,16.90
2015,07,06,00,43,16.90
2015,07,06,00,44,16.90
2015,07,06,00,45,16.90
2015,07,06,00,46,16.90
2015,07,06,00,47,16.90
2015,07,06,00,48,16.90
2015,07,06,00,49,16.80
2015,07,06,00,50,16.80
2015,07,06,00,51,16.80
2015,07,06,00,52,16.80
2015,07,06,00,53,16.80
2015,07,06,00,54,16.80
2015,07,06,00,55,16.80
2015,07,06,00,56,16.80
2015,07,06,00,57,16.80
2015,07,06,00,58,16.80
2015,07,06,00,59,16.80
2015,07,06,01,00,16.80
2015,07,06,01,01,16.80
2015,07,06,01,02,16.80
2015,07,06,01,03,16.80
2015,07,06,01,04,16.90
2015,07,06,01,05,16.90
2015,07,06,01,06,16.90
2015,07,06,01,07,16.90
2015,07,06,01,08,16.90
2015,07,06,01,09,17.00
2015,07,06,01,10,17.00
2015,07,06,01,11,17.10
2015,07,06,01,12,17.10
2015,07,06,01,13,17.10
2015,07,06,01,14,17.10
2015,07,06,01,15,17.10
2015,07,06,01,16,17.10
2015,07,06,01,17,17.10
2015,07,06,01,18,17.10
2015,07,06,01,19,17.10
2015,07,06,01,20,17.10
2015,07,06,01,21,17.10
2015,07,06,01,22,17.00
2015,07,06,01,23,17.00
2015,07,06,01,24,16.90
2015,07,06,01,25,16.90
2015,07,06,01,26,16.90
2015,07,06,01,27,16.80
2015,07,06,01,28,16.80
2015,07,06,01,29,16.80
2015,07,06,01,30,16.80
2015,07,06,01,31,16.70
2015,07,06,01,32,16.70
2015,07,06,01,33,16.70
2015,07,06,01,34,16.70
2015,07,06,01,35,16.70
2015,07,06,01,36,16.60
2015,07,06,01,37,16.60
2015,07,06,01,38,16.60
2015,07,06,01,39,16.60
2015,07,06,01,40,16.60
2015,07,06,01,41,16.60
2015,07,06,01,42,16.60
2015,07,06,01,43,16.60
2015,07,06,01,44,16.60
2015,07,06,01,45,16.60
2015,07,06,01,46,16.60
2015,07,06,01,47,16.60
2015,07,06,01,48,16.60
2015,07,06,01,49,16.60
2015,07,06,01,50,16.60
2015,07,06,01,51,16.70
2015,07,06,01,52,16.70
2015,07,06,01,53,16.80
2015,07,06,01,54,17.00
2015,07,06,01,55,17.10
2015,07,06,01,56,17.20
2015,07,06,01,57,17.30
2015,07,06,01,58,17.40
2015,07,06,01,59,17.40
2015,07,06,02,00,17.50
2015,07,06,02,01,17.60
2015,07,06,02,02,17.70
2015,07,06,02,03,18.00
2015,07,06,02,04,18.20
2015,07,06,02,05,18.30
2015,07,06,02,06,18.40
2015,07,06,02,07,18.50
2015,07,06,02,08,18.50
2015,07,06,02,09,18.50
2015,07,06,02,10,18.40
2015,07,06,02,11,18.40
2015,07,06,02,12,18.40
2015,07,06,02,13,18.40
2015,07,06,02,14,18.40
2015,07,06,02,15,18.40
2015,07,06,02,16,18.40
2015,07,06,02,17,18.40
2015,07,06,02,18,18.40
2015,07,06,02,19,18.40
2015,07,06,02,20,18.40
2015,07,06,02,21,18.30
2015,07,06,02,22,18.30
2015,07,06,02,23,18.30
2015,07,06,02,24,18.20
2015,07,06,02,25,18.20
2015,07,06,02,26,18.10
2015,07,06,02,27,18.10
2015,07,06,02,28,18.10
2015,07,06,02,29,18.10
2015,07,06,02,30,18.10
2015,07,06,02,31,18.00
2015,07,06,02,32,17.90
2015,07,06,02,33,17.90
2015,07,06,02,34,17.80
2015,07,06,02,35,17.70
2015,07,06,02,36,17.70
2015,07,06,02,37,17.60
2015,07,06,02,38,17.60
2015,07,06,02,39,17.50
2015,07,06,02,40,17.40
2015,07,06,02,41,17.40
2015,07,06,02,42,17.40
2015,07,06,02,43,17.40
2015,07,06,02,44,17.30
2015,07,06,02,45,17.30
2015,07,06,02,46,17.30
2015,07,06,02,47,17.30
2015,07,06,02,48,17.30
2015,07,06,02,49,17.30
2015,07,06,02,50,17.30
2015,07,06,02,51,17.30
2015,07,06,02,52,17.30
2015,07,06,02,53,17.30
2015,07,06,02,54,17.30
2015,07,06,02,55,17.30
2015,07,06,02,56,17.30
2015,07,06,02,57,17.30
2015,07,06,02,58,17.20
2015,07,06,02,59,17.20
2015,07,06,03,00,17.20
2015,07,06,03,01,17.20
2015,07,06,03,02,17.20
2015,07,06,03,03,17.10
2015,07,06,03,04,17.10
2015,07,06,03,05,17.10
2015,07,06,03,06,17.10
2015,07,06,03,07,17.00
2015,07,06,03,08,17.00
2015,07,06,03,09,17.00
2015,07,06,03,10,16.90
2015,07,06,03,11,16.90
2015,07,06,03,12,16.90
2015,07,06,03,13,16.80
2015,07,06,03,14,16.80
2015,07,06,03,15,16.80
2015,07,06,03,16,16.70
2015,07,06,03,17,16.70
2015,07,06,03,18,16.60
2015,07,06,03,19,16.60
2015,07,06,03,20,16.60
2015,07,06,03,21,16.60
2015,07,06,03,22,16.60
2015,07,06,03,23,16.60
2015,07,06,03,24,16.50
2015,07,06,03,25,16.50
2015,07,06,03,26,16.50
2015,07,06,03,27,16.50
2015,07,06,03,28,16.50
2015,07,06,03,29,16.50
2015,07,06,03,30,16.40
2015,07,06,03,31,16.40
2015,07,06,03,32,16.40
2015,07,06,03,33,16.30
2015,07,06,03,34,16.30
2015,07,06,03,35,16.30
2015,07,06,03,36,16.30
2015,07,06,03,37,16.30
2015,07,06,03,38,16.30
2015,07,06,03,39,16.30
2015,07,06,03,40,16.30
2015,07,06,03,41,16.30
2015,07,06,03,42,16.30
2015,07,06,03,43,16.20
2015,07,06,03,44,16.20
2015,07,06,03,45,16.20
2015,07,06,03,46,16.10
2015,07,06,03,47,16.10
2015,07,06,03,48,16.10
2015,07,06,03,49,16.00
2015,07,06,03,50,16.00
2015,07,06,03,51,16.00
2015,07,06,03,52,15.90
2015,07,06,03,53,15.90
2015,07,06,03,54,15.90
2015,07,06,03,55,15.80
2015,07,06,03,56,15.80
2015,07,06,03,57,15.80
2015,07,06,03,58,15.80
2015,07,06,03,59,15.80
2015,07,06,04,00,15.80
2015,07,06,04,01,15.80
2015,07,06,04,02,15.70
2015,07,06,04,03,15.70
2015,07,06,04,04,15.70
2015,07,06,04,05,15.70
2015,07,06,04,06,15.70
2015,07,06,04,07,15.70
2015,07,06,04,08,15.70
2015,07,06,04,09,15.70
2015,07,06,04,10,15.70
2015,07,06,04,11,15.70
2015,07,06,04,12,15.60
2015,07,06,04,13,15.60
2015,07,06,04,14,15.60
2015,07,06,04,15,15.70
2015,07,06,04,16,15.70
2015,07,06,04,17,15.70
2015,07,06,04,18,15.70
2015,07,06,04,19,15.60
2015,07,06,04,20,15.60
2015,07,06,04,21,15.60
2015,07,06,04,22,15.60
2015,07,06,04,23,15.60
2015,07,06,04,24,15.50
2015,07,06,04,25,15.50
2015,07,06,04,26,15.50
2015,07,06,04,27,15.40
2015,07,06,04,28,15.40
2015,07,06,04,29,15.40
2015,07,06,04,30,15.50
2015,07,06,04,31,15.50
2015,07,06,04,32,15.50
2015,07,06,04,33,15.60
2015,07,06,04,34,15.60
2015,07,06,04,35,15.60
2015,07,06,04,36,15.60
2015,07,06,04,37,15.60
2015,07,06,04,38,15.60
2015,07,06,04,39,15.60
2015,07,06,04,40,15.60
2015,07,06,04,41,15.50
2015,07,06,04,42,15.50
2015,07,06,04,43,15.40
2015,07,06,04,44,15.40
2015,07,06,04,45,15.30
2015,07,06,04,46,15.30
2015,07,06,04,47,15.30
2015,07,06,04,48,15.20
2015,07,06,04,49,15.20
2015,07,06,04,50,15.20
2015,07,06,04,51,15.20
2015,07,06,04,52,15.20
2015,07,06,04,53,15.30
2015,07,06,04,54,15.30
2015,07,06,04,55,15.30
2015,07,06,04,56,15.40
2015,07,06,04,57,15.50
2015,07,06,04,58,15.60
2015,07,06,04,59,15.60
2015,07,06,05,00,15.70
2015,07,06,05,01,15.70
2015,07,06,05,02,15.70
2015,07,06,05,03,15.80
2015,07,06,05,04,15.80
2015,07,06,05,05,15.80
2015,07,06,05,06,15.80
2015,07,06,05,07,15.80
2015,07,06,05,08,15.80
2015,07,06,05,09,15.80
2015,07,06,05,10,15.80
2015,07,06,05,11,15.80
2015,07,06,05,12,15.80
2015,07,06,05,13,15.80
2015,07,06,05,14,15.80
2015,07,06,05,15,15.80
2015,07,06,05,16,15.80
2015,07,06,05,17,15.80
2015,07,06,05,18,15.80
2015,07,06,05,19,15.70
2015,07,06,05,20,15.70
2015,07,06,05,21,15.70
2015,07,06,05,22,15.70
2015,07,06,05,23,15.60
2015,07,06,05,24,15.60
2015,07,06,05,25,15.50
2015,07,06,05,26,15.50
2015,07,06,05,27,15.40
2015,07,06,05,28,15.40
2015,07,06,05,29,15.30
2015,07,06,05,30,15.30
2015,07,06,05,31,15.20
2015,07,06,05,32,15.20
2015,07,06,05,33,15.20
2015,07,06,05,34,15.10
2015,07,06,05,35,15.10
2015,07,06,05,36,15.10
2015,07,06,05,37,15.10
2015,07,06,05,38,15.10
2015,07,06,05,39,15.10
2015,07,06,05,40,15.00
2015,07,06,05,41,15.00
2015,07,06,05,42,15.00
2015,07,06,05,43,15.10
2015,07,06,05,44,15.10
2015,07,06,05,45,15.10
2015,07,06,05,46,15.00
2015,07,06,05,47,15.00
2015,07,06,05,48,15.00
2015,07,06,05,49,14.90
2015,07,06,05,50,14.90
2015,07,06,05,51,14.90
2015,07,06,05,52,14.90
2015,07,06,05,53,14.80
2015,07,06,05,54,14.80
2015,07,06,05,55,14.80
2015,07,06,05,56,14.80
2015,07,06,05,57,14.80
2015,07,06,05,58,14.70
2015,07,06,05,59,14.70
2015,07,06,06,00,14.70
2015,07,06,06,01,14.70
2015,07,06,06,02,14.70
2015,07,06,06,03,14.70
2015,07,06,06,04,14.70
2015,07,06,06,05,14.70
2015,07,06,06,06,14.70
2015,07,06,06,07,14.70
2015,07,06,06,08,14.70
2015,07,06,06,09,14.70
2015,07,06,06,10,14.70
2015,07,06,06,11,14.70
2015,07,06,06,12,14.70
2015,07,06,06,13,14.70
2015,07,06,06,14,14.70
2015,07,06,06,15,14.70
2015,07,06,06,16,14.60
2015,07,06,06,17,14.60
2015,07,06,06,18,14.60
2015,07,06,06,19,14.60
2015,07,06,06,20,14.60
2015,07,06,06,21,14.60
2015,07,06,06,22,14.60
2015,07,06,06,23,14.60
2015,07,06,06,24,14.60
2015,07,06,06,25,14.60
2015,07,06,06,26,14.60
2015,07,06,06,27,14.60
2015,07,06,06,28,14.60
2015,07,06,06,29,14.60
2015,07,06,06,30,14.70
2015,07,06,06,31,14.70
2015,07,06,06,32,14.70
2015,07,06,06,33,14.70
2015,07,06,06,34,14.80
2015,07,06,06,35,14.80
2015,07,06,06,36,14.80
2015,07,06,06,37,14.80
2015,07,06,06,38,14.80
2015,07,06,06,39,14.80
2015,07,06,06,40,14.80
2015,07,06,06,41,14.80
2015,07,06,06,42,14.80
2015,07,06,06,43,14.80
2015,07,06,06,44,14.80
2015,07,06,06,45,14.80
2015,07,06,06,46,14.90
2015,07,06,06,47,14.90
2015,07,06,06,48,14.90
2015,07,06,06,49,15.00
2015,07,06,06,50,15.00
2015,07,06,06,51,15.00
2015,07,06,06,52,15.00
2015,07,06,06,53,15.00
2015,07,06,06,54,15.00
2015,07,06,06,55,15.00
2015,07,06,06,56,15.00
2015,07,06,06,57,15.00
2015,07,06,06,58,15.00
2015,07,06,06,59,15.00
2015,07,06,07,00,15.00
2015,07,06,07,01,15.00
2015,07,06,07,02,15.00
2015,07,06,07,03,15.00
2015,07,06,07,04,15.00
2015,07,06,07,05,15.00
2015,07,06,07,06,15.00
2015,07,06,07,07,15.10
2015,07,06,07,08,15.10
2015,07,06,07,09,15.20
2015,07,06,07,10,15.30
2015,07,06,07,11,15.40
2015,07,06,07,12,15.50
2015,07,06,07,13,15.60
2015,07,06,07,14,15.70
2015,07,06,07,15,15.70
2015,07,06,07,16,15.80
2015,07,06,07,17,15.80
2015,07,06,07,18,15.80
2015,07,06,07,19,15.90
2015,07,06,07,20,16.00
2015,07,06,07,21,16.20
2015,07,06,07,22,16.30
2015,07,06,07,23,16.40
2015,07,06,07,24,16.50
2015,07,06,07,25,16.60
2015,07,06,07,26,16.70
2015,07,06,07,27,16.80
2015,07,06,07,28,16.90
2015,07,06,07,29,17.00
2015,07,06,07,30,17.20
2015,07,06,07,31,17.30
2015,07,06,07,32,17.40
2015,07,06,07,33,17.50
2015,07,06,07,34,17.60
2015,07,06,07,35,17.70
2015,07,06,07,36,17.80
2015,07,06,07,37,17.90
2015,07,06,07,38,18.00
2015,07,06,07,39,18.10
2015,07,06,07,40,18.20
2015,07,06,07,41,18.30
2015,07,06,07,42,18.30
2015,07,06,07,43,18.40
2015,07,06,07,44,18.50
2015,07,06,07,45,18.60
2015,07,06,07,46,18.70
2015,07,06,07,47,18.80
2015,07,06,07,48,18.80
2015,07,06,07,49,18.90
2015,07,06,07,50,18.90
2015,07,06,07,51,18.90
2015,07,06,07,52,18.90
2015,07,06,07,53,18.90
2015,07,06,07,54,18.90
2015,07,06,07,55,18.90
2015,07,06,07,56,18.90
2015,07,06,07,57,18.90
2015,07,06,07,58,18.90
2015,07,06,07,59,18.90
2015,07,06,08,00,18.90
2015,07,06,08,01,18.90
2015,07,06,08,02,18.90
2015,07,06,08,03,18.90
2015,07,06,08,04,18.90
2015,07,06,08,05,18.90
2015,07,06,08,06,18.90
2015,07,06,08,07,19.00
2015,07,06,08,08,19.00
2015,07,06,08,09,19.00
2015,07,06,08,10,19.00
2015,07,06,08,11,19.10
2015,07,06,08,12,19.10
2015,07,06,08,13,19.10
2015,07,06,08,14,19.20
2015,07,06,08,15,19.20
2015,07,06,08,16,19.30
2015,07,06,08,17,19.30
2015,07,06,08,18,19.30
2015,07,06,08,19,19.40
2015,07,06,08,20,19.50
2015,07,06,08,21,19.60
2015,07,06,08,22,19.70
2015,07,06,08,23,19.70
2015,07,06,08,24,19.80
2015,07,06,08,25,19.80
2015,07,06,08,26,19.80
2015,07,06,08,27,19.90
2015,07,06,08,28,20.00
2015,07,06,08,29,20.10
2015,07,06,08,30,20.10
2015,07,06,08,31,20.20
2015,07,06,08,32,20.20
2015,07,06,08,33,20.20
2015,07,06,08,34,20.30
2015,07,06,08,35,20.30
2015,07,06,08,36,20.30
2015,07,06,08,37,20.40
2015,07,06,08,38,20.40
2015,07,06,08,39,20.50
2015,07,06,08,40,20.60
2015,07,06,08,41,20.60
2015,07,06,08,42,20.70
2015,07,06,08,43,20.70
2015,07,06,08,44,20.80
2015,07,06,08,45,20.80
2015,07,06,08,46,20.90
2015,07,06,08,47,20.90
2015,07,06,08,48,21.00
2015,07,06,08,49,21.10
2015,07,06,08,50,21.10
2015,07,06,08,51,21.10
2015,07,06,08,52,21.20
2015,07,06,08,53,21.20
2015,07,06,08,54,21.30
2015,07,06,08,55,21.30
2015,07,06,08,56,21.30
2015,07,06,08,57,21.40
2015,07,06,08,58,21.40
2015,07,06,08,59,21.40
2015,07,06,09,00,21.50
2015,07,06,09,01,21.50
2015,07,06,09,02,21.60
2015,07,06,09,03,21.60
2015,07,06,09,04,21.60
2015,07,06,09,05,21.70
2015,07,06,09,06,21.70
2015,07,06,09,07,21.70
2015,07,06,09,08,21.70
2015,07,06,09,09,21.80
2015,07,06,09,10,21.80
2015,07,06,09,11,21.80
2015,07,06,09,12,21.80
2015,07,06,09,13,21.90
2015,07,06,09,14,21.90
2015,07,06,09,15,21.90
2015,07,06,09,16,22.00
2015,07,06,09,17,22.00
2015,07,06,09,18,22.00
2015,07,06,09,19,22.10
2015,07,06,09,20,22.10
2015,07,06,09,21,22.10
2015,07,06,09,22,22.10
2015,07,06,09,23,22.10
2015,07,06,09,24,22.10
2015,07,06,09,25,22.10
2015,07,06,09,26,22.10
2015,07,06,09,27,22.00
2015,07,06,09,28,22.00
2015,07,06,09,29,22.00
2015,07,06,09,30,22.00
2015,07,06,09,31,22.00
2015,07,06,09,32,22.00
2015,07,06,09,33,22.00
2015,07,06,09,34,22.00
2015,07,06,09,35,22.00
2015,07,06,09,36,22.10
2015,07,06,09,37,22.10
2015,07,06,09,38,22.10
2015,07,06,09,39,22.10
2015,07,06,09,40,22.10
2015,07,06,09,41,22.10
2015,07,06,09,42,22.10
2015,07,06,09,43,22.10
2015,07,06,09,44,22.10
2015,07,06,09,45,22.10
2015,07,06,09,46,22.10
2015,07,06,09,47,22.00
2015,07,06,09,48,22.00
2015,07,06,09,49,21.90
2015,07,06,09,50,21.90
2015,07,06,09,51,21.90
2015,07,06,09,52,21.90
2015,07,06,09,53,21.90
2015,07,06,09,54,21.90
2015,07,06,09,55,21.90
2015,07,06,09,56,21.90
2015,07,06,09,57,21.90
2015,07,06,09,58,21.90
2015,07,06,09,59,21.90
2015,07,06,10,00,21.90
2015,07,06,10,01,21.90
2015,07,06,10,02,21.90
2015,07,06,10,03,21.90
2015,07,06,10,04,21.90
2015,07,06,10,05,21.90
2015,07,06,10,06,21.90
2015,07,06,10,07,21.90
2015,07,06,10,08,21.90
2015,07,06,10,09,21.80
2015,07,06,10,10,21.80
2015,07,06,10,11,21.80
2015,07,06,10,12,21.80
2015,07,06,10,13,21.80
2015,07,06,10,14,21.80
2015,07,06,10,15,21.80
2015,07,06,10,16,21.80
2015,07,06,10,17,21.80
2015,07,06,10,18,21.80
2015,07,06,10,19,21.80
2015,07,06,10,20,21.80
2015,07,06,10,21,21.80
2015,07,06,10,22,21.80
2015,07,06,10,23,21.90
2015,07,06,10,24,21.90
2015,07,06,10,25,21.90
2015,07,06,10,26,21.90
2015,07,06,10,27,21.90
2015,07,06,10,28,21.90
2015,07,06,10,29,21.80
2015,07,06,10,30,21.80
2015,07,06,10,31,21.70
2015,07,06,10,32,21.70
2015,07,06,10,33,21.70
2015,07,06,10,34,21.70
2015,07,06,10,35,21.60
2015,07,06,10,36,21.60
2015,07,06,10,37,21.50
2015,07,06,10,38,21.50
2015,07,06,10,39,21.40
2015,07,06,10,40,21.40
2015,07,06,10,41,21.40
2015,07,06,10,42,21.40
2015,07,06,10,43,21.40
2015,07,06,10,44,21.40
2015,07,06,10,45,21.40
2015,07,06,10,46,21.40
2015,07,06,10,47,21.40
2015,07,06,10,48,21.40
2015,07,06,10,49,21.40
2015,07,06,10,50,21.50
2015,07,06,10,51,21.50
2015,07,06,10,52,21.60
2015,07,06,10,53,21.60
2015,07,06,10,54,21.60
2015,07,06,10,55,21.60
2015,07,06,10,56,21.60
2015,07,06,10,57,21.60
2015,07,06,10,58,21.60
2015,07,06,10,59,21.60
2015,07,06,11,00,21.60
2015,07,06,11,01,21.60
2015,07,06,11,02,21.60
2015,07,06,11,03,21.60
2015,07,06,11,04,21.60
2015,07,06,11,05,21.70
2015,07,06,11,06,21.70
2015,07,06,11,07,21.70
2015,07,06,11,08,21.60
2015,07,06,11,09,21.60
2015,07,06,11,10,21.60
2015,07,06,11,11,21.50
2015,07,06,11,12,21.50
2015,07,06,11,13,21.40
2015,07,06,11,14,21.30
2015,07,06,11,15,21.30
2015,07,06,11,16,21.20
2015,07,06,11,17,21.20
2015,07,06,11,18,21.30
2015,07,06,11,19,21.30
2015,07,06,11,20,21.40
2015,07,06,11,21,21.40
2015,07,06,11,22,21.50
2015,07,06,11,23,21.50
2015,07,06,11,24,21.60
2015,07,06,11,25,21.60
2015,07,06,11,26,21.70
2015,07,06,11,27,21.70
2015,07,06,11,28,21.80
2015,07,06,11,29,21.80
2015,07,06,11,30,21.80
2015,07,06,11,31,21.90
2015,07,06,11,32,21.90
2015,07,06,11,33,21.90
2015,07,06,11,34,22.00
2015,07,06,11,35,22.00
2015,07,06,11,36,22.10
2015,07,06,11,37,22.20
2015,07,06,11,38,22.20
2015,07,06,11,39,22.30
2015,07,06,11,40,22.40
2015,07,06,11,41,22.50
2015,07,06,11,42,22.60
2015,07,06,11,43,22.70
2015,07,06,11,44,22.70
2015,07,06,11,45,22.70
2015,07,06,11,46,22.80
2015,07,06,11,47,22.80
2015,07,06,11,48,22.80
2015,07,06,11,49,22.80
2015,07,06,11,50,22.70
2015,07,06,11,51,22.70
2015,07,06,11,52,22.70
2015,07,06,11,53,22.70
2015,07,06,11,54,22.70
2015,07,06,11,55,22.70
2015,07,06,11,56,22.70
2015,07,06,11,57,22.80
2015,07,06,11,58,22.80
2015,07,06,11,59,22.90
2015,07,06,12,00,23.00
2015,07,06,12,01,23.10
2015,07,06,12,02,23.10
2015,07,06,12,03,23.20
2015,07,06,12,04,23.30
2015,07,06,12,05,23.40
2015,07,06,12,06,23.40
2015,07,06,12,07,23.50
2015,07,06,12,08,23.50
2015,07,06,12,09,23.60
2015,07,06,12,10,23.60
2015,07,06,12,11,23.70
2015,07,06,12,12,23.70
2015,07,06,12,13,23.80
2015,07,06,12,14,23.90
2015,07,06,12,15,23.90
2015,07,06,12,16,24.00
2015,07,06,12,17,24.10
2015,07,06,12,18,24.10
2015,07,06,12,19,24.20
2015,07,06,12,20,24.30
2015,07,06,12,21,24.30
2015,07,06,12,22,24.30
2015,07,06,12,23,24.30
2015,07,06,12,24,24.20
2015,07,06,12,25,24.10
2015,07,06,12,26,23.90
2015,07,06,12,27,23.80
2015,07,06,12,28,23.70
2015,07,06,12,29,23.60
2015,07,06,12,30,23.60
2015,07,06,12,31,23.50
2015,07,06,12,32,23.50
2015,07,06,12,33,23.40
2015,07,06,12,34,23.40
2015,07,06,12,35,23.40
2015,07,06,12,36,23.40
2015,07,06,12,37,23.30
2015,07,06,12,38,23.40
2015,07,06,12,39,23.40
2015,07,06,12,40,23.40
2015,07,06,12,41,23.50
2015,07,06,12,42,23.50
2015,07,06,12,43,23.50
2015,07,06,12,44,23.60
2015,07,06,12,45,23.60
2015,07,06,12,46,23.60
2015,07,06,12,47,23.70
2015,07,06,12,48,23.70
2015,07,06,12,49,23.70
2015,07,06,12,50,23.80
2015,07,06,12,51,23.80
2015,07,06,12,52,23.90
2015,07,06,12,53,23.90
2015,07,06,12,54,24.00
2015,07,06,12,55,24.00
2015,07,06,12,56,24.10
2015,07,06,12,57,24.10
2015,07,06,12,58,24.10
2015,07,06,12,59,24.20
2015,07,06,13,00,24.20
2015,07,06,13,01,24.20
2015,07,06,13,02,24.20
2015,07,06,13,03,24.20
2015,07,06,13,04,24.20
2015,07,06,13,05,24.10
2015,07,06,13,06,24.00
2015,07,06,13,07,23.90
2015,07,06,13,08,23.90
2015,07,06,13,09,23.90
2015,07,06,13,10,23.80
2015,07,06,13,11,23.90
2015,07,06,13,12,23.90
2015,07,06,13,13,23.90
2015,07,06,13,14,23.90
2015,07,06,13,15,23.90
2015,07,06,13,16,23.90
2015,07,06,13,17,23.90
2015,07,06,13,18,23.90
2015,07,06,13,19,23.80
2015,07,06,13,20,23.80
2015,07,06,13,21,23.80
2015,07,06,13,22,23.90
2015,07,06,13,23,23.90
2015,07,06,13,24,23.90
2015,07,06,13,25,23.90
2015,07,06,13,26,24.00
2015,07,06,13,27,24.10
2015,07,06,13,28,24.10
2015,07,06,13,29,24.10
2015,07,06,13,30,24.20
2015,07,06,13,31,24.20
2015,07,06,13,32,24.20
2015,07,06,13,33,24.20
2015,07,06,13,34,24.30
2015,07,06,13,35,24.30
2015,07,06,13,36,24.30
2015,07,06,13,37,24.40
2015,07,06,13,38,24.40
2015,07,06,13,39,24.30
2015,07,06,13,40,24.30
2015,07,06,13,41,24.20
2015,07,06,13,42,24.20
2015,07,06,13,43,24.20
2015,07,06,13,44,24.10
2015,07,06,13,45,24.00
2015,07,06,13,46,23.90
2015,07,06,13,47,23.80
2015,07,06,13,48,23.70
2015,07,06,13,49,23.70
2015,07,06,13,50,23.60
2015,07,06,13,51,23.50
2015,07,06,13,52,23.40
2015,07,06,13,53,23.40
2015,07,06,13,54,23.40
2015,07,06,13,55,23.40
2015,07,06,13,56,23.50
2015,07,06,13,57,23.60
2015,07,06,13,58,23.60
2015,07,06,13,59,23.70
2015,07,06,14,00,23.70
2015,07,06,14,01,23.80
2015,07,06,14,02,23.80
2015,07,06,14,03,23.90
2015,07,06,14,04,24.00
2015,07,06,14,05,24.10
2015,07,06,14,06,24.20
2015,07,06,14,07,24.30
2015,07,06,14,08,24.30
2015,07,06,14,09,24.40
2015,07,06,14,10,24.50
2015,07,06,14,11,24.50
2015,07,06,14,12,24.60
2015,07,06,14,13,24.70
2015,07,06,14,14,24.70
2015,07,06,14,15,24.80
2015,07,06,14,16,24.80
2015,07,06,14,17,24.90
2015,07,06,14,18,24.90
2015,07,06,14,19,25.00
2015,07,06,14,20,25.00
2015,07,06,14,21,24.90
2015,07,06,14,22,24.90
2015,07,06,14,23,24.80
2015,07,06,14,24,24.70
2015,07,06,14,25,24.70
2015,07,06,14,26,24.70
2015,07,06,14,27,24.70
2015,07,06,14,28,24.70
2015,07,06,14,29,24.70
2015,07,06,14,30,24.70
2015,07,06,14,31,24.70
2015,07,06,14,32,24.70
2015,07,06,14,33,24.70
2015,07,06,14,34,24.70
2015,07,06,14,35,24.80
2015,07,06,14,36,24.90
2015,07,06,14,37,24.90
2015,07,06,14,38,25.00
2015,07,06,14,39,25.10
2015,07,06,14,40,25.10
2015,07,06,14,41,25.20
2015,07,06,14,42,25.20
2015,07,06,14,43,25.30
2015,07,06,14,44,25.30
2015,07,06,14,45,25.30
2015,07,06,14,46,25.30
2015,07,06,14,47,25.30
2015,07,06,14,48,25.40
2015,07,06,14,49,25.40
2015,07,06,14,50,25.40
2015,07,06,14,51,25.40
2015,07,06,14,52,25.40
2015,07,06,14,53,25.40
2015,07,06,14,54,25.40
2015,07,06,14,55,25.50
2015,07,06,14,56,25.50
2015,07,06,14,57,25.40
2015,07,06,14,58,25.30
2015,07,06,14,59,25.30
2015,07,06,15,00,25.20
2015,07,06,15,01,25.20
2015,07,06,15,02,25.10
2015,07,06,15,03,25.10
2015,07,06,15,04,25.10
2015,07,06,15,05,25.10
2015,07,06,15,06,25.10
2015,07,06,15,07,25.20
2015,07,06,15,08,25.20
2015,07,06,15,09,25.20
2015,07,06,15,10,25.20
2015,07,06,15,11,25.20
2015,07,06,15,12,25.20
2015,07,06,15,13,25.20
2015,07,06,15,14,25.20
2015,07,06,15,15,25.20
2015,07,06,15,16,25.20
2015,07,06,15,17,25.20
2015,07,06,15,18,25.20
2015,07,06,15,19,25.30
2015,07,06,15,20,25.30
2015,07,06,15,21,25.30
2015,07,06,15,22,25.40
2015,07,06,15,23,25.40
2015,07,06,15,24,25.40
2015,07,06,15,25,25.40
2015,07,06,15,26,25.40
2015,07,06,15,27,25.40
2015,07,06,15,28,25.50
2015,07,06,15,29,25.50
2015,07,06,15,30,25.60
2015,07,06,15,31,25.60
2015,07,06,15,32,25.60
2015,07,06,15,33,25.60
2015,07,06,15,34,25.50
2015,07,06,15,35,25.40
2015,07,06,15,36,25.40
2015,07,06,15,37,25.40
2015,07,06,15,38,25.30
2015,07,06,15,39,25.30
2015,07,06,15,40,25.30
2015,07,06,15,41,25.30
2015,07,06,15,42,25.30
2015,07,06,15,43,25.30
2015,07,06,15,44,25.30
2015,07,06,15,45,25.30
2015,07,06,15,46,25.30
2015,07,06,15,47,25.30
2015,07,06,15,48,25.30
2015,07,06,15,49,25.30
2015,07,06,15,50,25.30
2015,07,06,15,51,25.30
2015,07,06,15,52,25.20
2015,07,06,15,53,25.20
2015,07,06,15,54,25.10
2015,07,06,15,55,25.10
2015,07,06,15,56,25.10
2015,07,06,15,57,25.10
2015,07,06,15,58,25.10
2015,07,06,15,59,25.10
2015,07,06,16,00,25.20
2015,07,06,16,01,25.20
2015,07,06,16,02,25.20
2015,07,06,16,03,25.20
2015,07,06,16,04,25.30
2015,07,06,16,05,25.40
2015,07,06,16,06,25.40
2015,07,06,16,07,25.50
2015,07,06,16,08,25.50
2015,07,06,16,09,25.60
2015,07,06,16,10,25.60
2015,07,06,16,11,25.70
2015,07,06,16,12,25.70
2015,07,06,16,13,25.70
2015,07,06,16,14,25.70
2015,07,06,16,15,25.80
2015,07,06,16,16,25.80
2015,07,06,16,17,25.90
2015,07,06,16,18,25.90
2015,07,06,16,19,26.00
2015,07,06,16,20,26.00
2015,07,06,16,21,26.00
2015,07,06,16,22,26.10
2015,07,06,16,23,26.10
2015,07,06,16,24,26.10
2015,07,06,16,25,26.20
2015,07,06,16,26,26.20
2015,07,06,16,27,26.20
2015,07,06,16,28,26.30
2015,07,06,16,29,26.30
2015,07,06,16,30,26.30
2015,07,06,16,31,26.20
2015,07,06,16,32,26.20
2015,07,06,16,33,26.20
2015,07,06,16,34,26.20
2015,07,06,16,35,26.30
2015,07,06,16,36,26.30
2015,07,06,16,37,26.30
2015,07,06,16,38,26.30
2015,07,06,16,39,26.30
2015,07,06,16,40,26.30
2015,07,06,16,41,26.40
2015,07,06,16,42,26.40
2015,07,06,16,43,26.50
2015,07,06,16,44,26.50
2015,07,06,16,45,26.60
2015,07,06,16,46,26.60
2015,07,06,16,47,26.70
2015,07,06,16,48,26.70
2015,07,06,16,49,26.80
2015,07,06,16,50,26.80
2015,07,06,16,51,26.90
2015,07,06,16,52,26.90
2015,07,06,16,53,27.00
2015,07,06,16,54,27.00
2015,07,06,16,55,27.10
2015,07,06,16,56,27.10
2015,07,06,16,57,27.10
2015,07,06,16,58,27.10
2015,07,06,16,59,27.10
2015,07,06,17,00,27.10
2015,07,06,17,01,27.10
2015,07,06,17,02,27.00
2015,07,06,17,03,27.00
2015,07,06,17,04,26.90
2015,07,06,17,05,26.90
2015,07,06,17,06,26.90
2015,07,06,17,07,26.90
2015,07,06,17,08,26.90
2015,07,06,17,09,26.90
2015,07,06,17,10,26.90
2015,07,06,17,11,26.90
2015,07,06,17,12,26.90
2015,07,06,17,13,26.90
2015,07,06,17,14,26.90
2015,07,06,17,15,26.90
2015,07,06,17,16,26.90
2015,07,06,17,17,26.90
2015,07,06,17,18,26.80
2015,07,06,17,19,26.70